Location: STAR School
(35.3054°N, 111.2976°W)
Time: 07:44:20
(UTC-07:00)

deb Explorer IX - Pass Details

Date: 28 May 2019
Orbit: 536 x 1115 km, 38.8° (Epoch: 24 June)

Event Time Altitude Azimuth Distance (km) Brightness Sun altitude
Exits shadow 03:52:33 - 289° (WNW) 1,975 ? -14.5°
Reaches altitude 10° 03:53:02 10° 290° (WNW) 1,781 ? -14.4°
Maximum altitude 03:57:02 68° 14° (NNE) 586 ? -13.8°
Drops below altitude 10° 04:01:16 10° 97° (E) 1,880 ? -13.2°
Sets 04:03:40 0° 100° (E) 2,843 ? -12.8°
